Location: Newark
(47.5833°N, 8.1500°E)
Time: 01:51:12
(UTC+00:00)

Transit 2A - Pass Details

Date: 31 October 2020
Orbit: 594 x 964 km, 66.7° (Epoch: 25 November)

Event Time Altitude Azimuth Distance (km) Brightness Sun altitude
Rises 03:22:23 0° 291° (WNW) 3,637 - -28.7°
Reaches altitude 10° 03:26:33 10° 316° (NW) 2,654 - -28.0°
Exits shadow 03:29:12 14° 342° (NNW) 2,368 8.4 -27.6°
Maximum altitude 03:29:32 14° 345° (NNW) 2,360 8.4 -27.5°
Drops below altitude 10° 03:32:27 10° 14° (NNE) 2,568 8.9 -27.0°
Sets 03:36:21 0° 41° (NE) 3,429 10.1 -26.4°
